Weather History for Fullerton, CA

Change the Weather History Date:

Monday, November 7, 2011

  Actual Average Record
Temperature  
Mean Temperature 55 °F 63 °F  
Max Temperature 67 °F 75 °F 96 °F (2006)
Min Temperature 43 °F 52 °F 43 °F (2011)
Degree Days  
Heating Degree Days 10 3  
Month to date heating degree days 39 17  
Since 1 July heating degree days 48 41  
Cooling Degree Days 0 1  
Month to date cooling degree days 3 9  
Year to date cooling degree days 1168 1240  
Growing Degree Days 5 (Base 50)    
Moisture  
Dew Point 42 °F    
Average Humidity 62    
Maximum Humidity 89    
Minimum Humidity 34    
Precipitation  
Precipitation 0.00 in 0.04 in 0.05 in (2002)
Month to date precipitation 0.44 0.32  
Year to date precipitation 6.77 11.05  
Since 1 July precipitation 1.20 1.40  
Snow  
Snow 0.00 in - - ()
Month to date snowfall 0.0  
Year to date snowfall 0.0  
Since 1 July snowfall 0.0  
Snow Depth 0.00 in    
Sea Level Pressure  
Sea Level Pressure 30.11 in    
Wind  
Wind Speed 2 mph (SSE)    
Max Wind Speed 9 mph    
Max Gust Speed 21 mph    
Visibility 10 miles    
Events      
T = Trace of Precipitation, MM = Missing Value Source: NWS Daily Summary

Daily Weather History Graph

Daily Weather History Graph

Search for Another Location

Airport:

Trip Planner

Search our weather history database for the weather conditions in past years. The results will help you decide how hot, cold, wet, or windy it might be!

Date:

Astronomy

Nov. 07, 2011 Rise Set
Actual Time 6:16 AM PST 4:54 PM PST
Civil Twilight 5:50 AM PST 5:20 PM PST
Nautical Twilight 5:20 AM PST 5:50 PM PST
Astronomical Twilight 4:51 AM PST 6:19 PM PST
Moon 3:02 PM PST (11/7) 3:29 AM PST (11/7)
Length of Visible Light 11h 29m
Length of Day
10h 37m
Waxing Gibbous, 92% of the Moon is Illuminated
Nov 7
Waxing Gibbous
Nov 10
Full
Nov 18
Last Quarter
Nov 24
New
Dec 2
First Quarter

Hourly Weather History & Observations

Time (PST) Temp. Dew Point Humidity Pressure Visibility Wind Dir Wind Speed Gust Speed Precip Events Conditions
12:53 AM 46.9 °F 43.0 °F 86% 30.03 in 10.0 mi Calm Calm - N/A   Clear
1:53 AM 46.9 °F 43.0 °F 86% 30.02 in 10.0 mi Calm Calm - N/A   Clear
2:53 AM 45.0 °F 41.0 °F 86% 30.03 in 10.0 mi Calm Calm - N/A   Clear
3:53 AM 45.0 °F 41.0 °F 86% 30.03 in 10.0 mi Calm Calm - N/A   Clear
5:53 AM 44.1 °F 39.9 °F 85% 30.06 in 10.0 mi Calm Calm - N/A   Clear
7:53 AM 51.1 °F 45.0 °F 80% 30.11 in 10.0 mi East 3.5 mph - N/A   Clear
8:53 AM 57.0 °F 46.0 °F 67% 30.12 in 10.0 mi Calm Calm - N/A   Clear
9:53 AM 60.1 °F 46.0 °F 60% 30.13 in 10.0 mi Calm Calm - N/A   Clear
10:53 AM 63.0 °F 39.9 °F 43% 30.12 in 10.0 mi Calm Calm - N/A   Clear
11:53 AM 64.0 °F 39.0 °F 40% 30.12 in 10.0 mi Calm Calm - N/A   Clear
12:53 PM 66.0 °F 41.0 °F 40% 30.10 in 10.0 mi WSW 5.8 mph - N/A   Clear
1:53 PM 66.0 °F 39.9 °F 38% 30.09 in 10.0 mi South 8.1 mph - N/A   Clear
3:53 PM 64.0 °F 39.0 °F 40% 30.11 in 10.0 mi Variable 4.6 mph - N/A   Clear
4:53 PM 62.1 °F 36.0 °F 38% 30.12 in 10.0 mi South 4.6 mph - N/A   Clear
6:53 PM 55.9 °F 43.0 °F 62% 30.16 in 10.0 mi Calm Calm - N/A   Clear
7:53 PM 55.0 °F 44.1 °F 67% 30.18 in 10.0 mi Calm Calm - N/A   Clear
8:53 PM 53.1 °F 44.1 °F 71% 30.19 in 10.0 mi Calm Calm - N/A   Clear
9:53 PM 52.0 °F 43.0 °F 71% 30.19 in 10.0 mi East 3.5 mph - N/A   Clear
10:53 PM 50.0 °F 42.1 °F 74% 30.19 in 10.0 mi Calm Calm - N/A   Clear
11:53 PM 48.9 °F 42.1 °F 77% 30.19 in 10.0 mi Calm Calm - N/A   Clear